Wind_Speed
16 17 18 18 19 19 19 18 18 17 16 14 11 8 7 7 9 10 11 12 13 12 12 11 11 11 12 11 12 14 15 14 12 10 10 5 3 6 4 3 2 3 4 9 12 16 13 7 6 4 6 2 6 4 4 4 3 2 1 2 2 1 2 4 5 3 1 2 2 1 2 5 4 4 11 5 5 10 11 9 8 9 9 11 14 16 16 13
16 16 17 17 18 19 19 19 19 18 18 17 15 11 9 8 8 10 12 12 13 13 12 11 11 11 12 11 12 14 14 12 12 15 10 5 2 1 0 1 2 4 7 11 13 14 10 5 5 5 5 2 7 5 4 3 2 2 1 3 2 4 4 6 6 4 2 3 3 2 4 2 5 5 9 4 7 8 9 7 8 11 11 11 13 14 14 12
16 16 16 17 17 18 19 19 19 19 19 20 19 16 12 9 8 8 10 11 12 12 12 11 11 11 12 12 11 10 10 11 13 11 7 7 1 1 1 2 3 6 9 13 15 11 9 10 9 8 6 4 5 2 1 1 1 1 2 2 4 8 8 7 6 5 5 5 3 1 2 6 2 8 8 6 7 6 6 6 7 11 11 11 12 12 13 13
16 16 16 16 16 17 18 19 19 20 20 21 21 19 16 12 8 7 8 10 10 10 10 10 10 10 11 11 8 6 7 10 7 7 11 7 2 2 1 3 3 8 11 15 20 10 13 13 12 8 3 2 3 1 1 1 1 2 2 4 6 9 7 6 7 9 7 4 5 1 2 5 9 9 9 8 6 5 3 4 7 11 12 11 11 11 11 12
17 17 16 16 16 17 17 19 20 20 21 21 22 20 19 16 10 5 5 7 8 8 8 8 8 10 10 8 4 3 6 5 3 12 11 5 3 2 2 2 4 8 10 16 21 6 16 11 8 4 1 1 5 2 0 2 3 5 4 5 9 10 8 8 8 6 4 3 4 7 4 7 9 8 10 9 5 3 2 4 9 11 12 12 11 11 10 9
18 18 17 17 16 17 17 18 20 21 21 22 22 21 20 19 14 7 4 5 6 5 6 7 7 9 8 6 2 2 6 1 7 10 9 5 3 1 1 2 5 8 8 17 16 5 12 7 4 2 1 2 6 4 4 5 5 5 6 6 9 12 10 10 8 6 8 8 10 9 8 10 11 10 10 9 6 4 4 7 10 11 13 13 12 11 10 9
20 19 18 18 17 17 17 18 20 21 22 22 22 21 20 20 16 10 5 3 4 3 4 5 7 8 5 3 1 3 8 3 8 10 8 6 2 1 2 4 6 8 7 12 7 8 7 6 6 3 2 2 6 7 6 9 9 4 7 9 10 11 12 12 14 14 14 13 13 12 12 13 15 12 9 11 10 7 7 8 9 11 13 12 11 10 9 8
21 21 20 19 18 18 18 18 19 21 21 22 22 21 20 20 17 12 7 3 2 1 2 4 5 5 3 2 4 7 8 3 11 11 7 5 1 0 4 5 5 10 9 5 3 7 4 6 7 3 2 1 4 7 4 5 7 6 7 10 8 10 13 13 12 12 11 9 12 13 14 15 15 12 11 13 12 11 10 9 9 10 11 10 9 9 8 7
22 21 21 20 19 19 18 18 19 20 21 22 22 22 21 19 17 13 8 4 2 1 2 3 3 2 2 3 6 7 0 8 12 9 6 5 2 2 4 6 8 12 7 2 2 3 3 4 5 0 2 1 2 5 5 2 3 6 8 10 9 10 12 11 10 11 11 9 11 13 15 14 15 13 12 13 12 12 12 11 10 10 10 9 9 8 8 8
23 22 22 21 21 20 19 18 18 19 20 21 21 21 21 19 16 14 9 5 2 2 2 3 2 2 3 5 7 5 6 10 9 8 6 5 4 7 10 9 6 5 2 1 1 3 5 3 4 4 5 3 2 3 7 5 6 6 9 10 10 11 10 10 11 11 11 10 12 13 13 12 12 11 9 11 12 11 11 12 11 9 9 9 9 9 8 8
24 23 22 22 22 21 20 19 18 19 20 20 21 21 21 19 15 14 10 5 3 3 2 2 2 3 4 6 8 3 3 6 7 8 6 6 8 9 10 7 1 3 2 4 6 2 5 8 7 4 3 6 5 3 4 9 8 8 10 11 10 11 10 11 10 9 9 9 11 12 12 11 9 10 10 10 10 9 9 10 9 8 8 9 8 9 7 7
25 24 23 23 23 22 21 20 19 18 19 19 20 20 20 19 15 13 11 6 3 4 3 1 2 2 5 8 7 1 3 5 6 7 6 7 9 5 2 4 6 6 3 5 8 3 5 13 10 2 1 5 0 3 2 5 3 7 4 9 11 10 10 10 9 7 7 7 8 7 9 10 9 11 12 11 9 8 8 8 7 6 6 8 7 7 6 5
26 25 24 23 23 23 22 21 20 19 18 19 19 19 19 18 14 12 11 7 4 5 4 2 2 3 6 6 3 4 3 4 5 6 6 7 8 4 3 3 5 7 3 4 10 7 8 10 8 5 1 1 1 2 2 1 7 6 5 1 8 8 7 9 8 8 7 5 6 3 4 9 10 12 12 10 10 9 8 7 7 5 5 6 5 5 5 5
27 26 25 24 24 24 23 22 21 19 18 18 19 18 18 17 14 11 11 8 4 5 5 4 2 2 6 3 5 6 4 3 5 7 7 8 6 5 7 5 4 5 2 3 7 8 10 6 4 7 4 2 4 4 1 3 5 2 4 3 3 5 6 8 8 9 8 4 5 3 2 8 10 12 11 10 11 10 9 8 7 6 5 5 4 3 4 5
28 28 26 25 25 24 24 23 22 20 18 18 18 18 18 16 13 10 10 9 6 5 5 6 5 5 5 2 5 6 5 5 6 8 8 8 7 6 8 8 6 4 2 3 6 6 10 8 3 2 2 4 5 4 1 2 3 3 0 3 2 6 7 8 7 7 6 4 8 4 3 8 9 11 11 10 10 10 9 9 8 7 6 6 5 3 3 4
29 29 28 26 25 25 24 23 22 21 19 18 18 18 18 15 12 10 9 8 7 5 3 5 10 11 6 2 7 7 6 7 7 8 9 8 8 5 3 5 6 6 6 6 6 6 9 7 0 1 1 5 4 2 1 0 2 4 3 2 3 7 6 6 5 3 2 3 6 5 5 8 8 11 11 10 10 9 8 9 8 8 7 6 5 5 5 4
30 30 29 28 26 26 25 24 23 21 19 18 19 19 18 15 12 9 7 8 8 6 8 9 10 11 4 1 6 8 8 8 8 9 10 9 9 7 4 5 6 7 9 9 8 9 9 6 2 1 1 3 2 2 1 1 1 1 2 3 7 7 6 6 5 3 4 4 4 5 8 9 9 11 10 10 9 7 8 8 7 7 6 6 5 4 5 4
31 31 31 29 28 27 26 24 23 21 19 18 19 20 18 15 11 7 5 5 5 6 11 13 10 6 3 4 6 8 9 9 8 8 10 9 8 7 8 8 6 6 8 8 9 10 8 7 5 4 5 4 3 3 1 2 2 2 1 3 6 8 7 8 6 4 2 4 5 9 10 11 11 10 9 8 8 6 7 7 7 6 4 5 4 4 6 6
31 32 32 31 29 27 26 25 23 22 20 18 18 20 16 11 7 6 8 7 4 5 6 6 9 6 3 7 5 3 4 4 6 7 9 9 8 8 9 10 8 7 7 5 7 9 6 6 5 5 3 4 6 8 3 2 1 1 1 3 6 6 8 12 10 5 5 5 5 11 10 11 12 10 9 8 6 6 7 6 7 7 5 4 3 3 5 7
32 33 33 32 31 29 27 25 23 22 20 19 18 16 9 4 2 4 7 8 8 10 9 8 12 10 4 6 5 4 2 3 6 7 7 8 8 9 10 9 10 9 7 4 3 5 4 3 5 6 5 8 13 12 8 4 4 2 1 3 4 6 8 13 13 10 10 5 4 11 10 11 12 10 10 7 5 8 7 6 7 7 7 6 4 4 6 7
33 33 34 34 33 30 28 25 23 21 19 20 16 9 6 3 2 3 2 7 13 16 16 12 8 7 4 2 5 4 6 6 7 8 6 6 8 8 7 8 9 7 4 2 2 2 1 3 6 4 3 8 12 9 15 11 2 1 1 3 2 6 8 10 11 11 8 3 3 10 11 11 11 10 10 8 6 8 8 7 7 7 7 8 7 7 7 7
33 34 35 35 34 32 29 26 23 19 18 16 12 10 7 5 3 7 7 7 13 15 15 11 8 6 4 6 3 3 8 7 7 8 6 5 8 7 5 6 7 4 2 2 3 4 3 5 2 3 3 5 5 3 14 13 1 2 1 1 2 4 7 8 9 10 7 2 1 7 9 10 10 10 9 9 7 6 7 8 8 7 6 7 9 8 8 7
34 35 36 35 36 34 30 26 21 18 17 13 12 13 6 6 5 9 8 7 11 13 12 10 10 9 9 8 6 6 10 7 6 9 9 5 7 7 6 6 6 4 2 3 4 2 4 1 3 5 1 2 4 4 12 9 2 2 2 2 2 5 6 5 5 7 7 4 3 3 7 8 8 8 7 8 9 7 8 8 8 9 7 7 9 8 7 8
34 35 36 36 37 35 31 27 18 15 14 12 16 13 5 6 7 10 8 7 9 11 13 12 10 9 6 5 6 10 9 4 2 7 11 6 7 6 6 5 5 5 2 1 2 5 1 5 2 2 2 1 1 5 12 6 4 3 4 2 3 6 9 7 6 7 7 3 2 3 5 6 3 6 6 5 8 9 8 8 7 9 9 8 9 7 6 8
34 35 36 37 37 37 34 22 11 10 11 13 16 9 2 4 7 9 8 6 7 9 12 11 6 6 4 5 6 8 8 4 2 5 10 7 8 5 5 2 3 5 2 2 5 4 3 6 4 7 1 3 4 1 9 5 2 2 2 3 4 4 11 11 4 3 4 2 2 3 2 4 3 6 8 5 6 7 7 8 8 9 8 8 9 7 6 8
34 34 36 36 36 39 31 12 9 15 12 12 9 2 2 5 6 8 6 5 7 8 8 7 5 6 7 7 8 8 9 6 4 4 5 6 7 6 6 3 2 3 4 4 5 2 1 3 2 7 5 3 4 4 6 2 3 2 1 4 3 3 9 13 6 3 3 1 4 2 2 4 3 4 7 7 7 7 3 5 8 8 7 8 10 8 7 9
34 34 37 35 34 37 23 10 18 21 11 5 2 2 4 5 7 6 5 5 6 5 5 5 5 6 7 8 10 9 4 4 6 4 4 5 5 4 5 5 4 2 1 3 2 1 4 2 3 4 4 4 3 5 5 3 1 1 4 3 2 2 8 15 10 3 3 3 1 2 4 2 2 4 6 7 9 9 6 5 6 6 6 6 7 9 9 10
35 34 36 35 34 32 20 16 21 17 11 10 7 4 5 6 7 5 4 5 3 2 3 3 4 4 6 8 11 11 2 6 5 7 7 6 5 5 7 6 6 4 1 4 4 1 3 3 1 5 4 3 4 5 6 4 2 3 4 3 5 5 5 13 12 0 5 4 3 2 1 1 1 4 5 4 6 8 7 7 5 5 7 5 3 6 10 9
35 34 34 36 34 26 18 18 17 15 16 14 9 8 8 8 8 4 4 5 2 2 3 2 4 6 8 7 9 11 4 4 5 5 7 6 6 6 8 6 7 8 5 5 6 3 3 6 6 5 4 6 6 5 4 6 4 5 3 3 2 2 1 6 10 3 4 3 4 7 4 2 2 2 2 3 4 6 6 6 5 5 7 7 4 5 9 8
35 34 33 36 33 23 19 18 17 16 15 11 11 13 10 8 6 5 6 4 2 4 4 3 5 9 10 8 9 10 9 7 4 5 5 6 7 8 7 6 5 9 6 5 6 2 4 3 2 4 5 6 4 2 2 4 4 2 5 5 2 1 3 3 4 5 2 0 7 10 6 6 2 1 3 1 5 7 7 6 6 7 7 7 5 5 7 8
34 34 32 34 32 24 17 14 13 13 13 12 14 13 8 6 5 5 6 3 4 7 7 6 7 10 13 11 9 10 11 11 8 7 5 5 7 7 6 7 4 6 6 3 4 0 4 4 2 1 2 4 4 3 4 3 2 2 5 2 4 5 5 3 3 2 1 2 9 13 9 6 2 2 4 4 6 6 7 6 7 9 7 5 4 4 7 6
33 33 32 31 29 23 15 14 15 16 14 14 14 9 6 5 5 5 6 5 4 5 7 8 8 9 12 12 11 10 10 10 9 8 6 7 7 6 6 5 2 2 4 1 3 5 4 6 3 3 2 3 6 3 4 3 2 4 3 3 5 3 3 1 0 0 1 4 12 16 10 5 1 2 5 8 7 7 8 7 8 9 6 5 6 6 6 3
33 33 33 29 24 20 19 17 16 14 13 13 9 5 5 5 6 7 8 6 2 4 5 9 8 10 12 11 10 9 8 8 7 8 8 9 7 6 7 5 1 1 2 3 4 5 2 4 3 5 6 1 7 4 1 1 2 3 1 3 4 1 3 3 1 2 2 3 9 13 10 6 2 2 7 10 9 8 8 9 10 9 5 3 6 8 6 4
32 32 31 27 22 19 19 17 14 11 11 10 6 5 7 7 6 9 9 6 5 5 9 10 7 10 11 8 8 8 8 8 8 9 8 7 6 4 5 5 4 3 4 2 3 4 3 1 4 3 5 2 6 6 5 4 5 4 2 1 2 3 2 1 2 2 2 1 4 6 4 4 3 5 9 10 9 8 9 10 9 7 5 3 3 6 6 6
31 29 26 24 21 17 15 14 12 8 7 6 5 6 8 6 6 9 8 6 6 9 10 10 7 7 7 6 7 10 9 6 8 10 7 5 6 3 3 5 5 5 5 4 1 2 4 3 2 1 2 3 4 5 2 4 5 5 4 3 3 2 3 1 1 3 3 3 2 3 2 4 4 5 8 8 8 9 9 10 8 7 7 3 3 5 6 7
28 26 21 18 17 14 11 10 9 7 5 6 6 8 8 6 8 7 4 6 6 7 9 9 7 7 6 6 6 9 8 5 7 8 6 7 7 5 5 3 5 5 3 1 2 2 2 3 3 3 2 1 4 4 2 1 2 2 3 4 2 1 4 1 2 1 2 2 0 2 2 5 4 4 6 7 8 8 6 8 9 8 5 3 5 7 7 8
26 21 17 17 17 12 9 8 8 7 6 6 7 8 7 8 11 8 4 4 4 5 8 6 5 6 6 6 6 8 9 7 7 6 4 7 5 3 6 5 4 2 1 1 3 2 1 5 5 4 3 6 3 5 2 1 5 3 1 3 3 1 2 3 0 1 2 2 2 0 0 4 4 3 4 6 7 6 6 8 8 7 5 5 7 8 8 8
24 16 16 18 18 11 7 8 8 7 6 6 9 9 9 10 12 9 5 4 6 8 9 5 3 6 6 7 6 9 11 7 7 7 6 6 2 7 7 6 5 1 2 3 4 3 1 5 3 2 1 6 4 5 3 3 3 6 4 1 1 1 2 3 3 1 2 2 0 2 2 5 5 4 4 6 6 3 5 8 6 5 6 6 8 8 8 6
18 11 9 8 10 8 6 7 8 7 6 7 9 8 9 12 13 11 9 9 9 9 9 5 3 5 6 6 5 7 10 7 7 7 5 4 4 6 9 2 6 4 2 4 4 2 1 3 1 1 1 3 4 1 0 1 1 8 7 1 2 1 2 0 3 2 2 3 2 1 4 5 4 3 4 7 7 4 4 6 6 6 7 6 8 9 8 5
12 7 3 4 6 5 5 7 7 7 7 8 9 8 10 12 14 15 11 8 7 7 6 4 4 4 6 7 7 6 9 9 6 5 4 5 7 7 8 2 3 4 5 5 3 1 1 2 1 4 1 2 1 1 2 1 1 4 4 2 2 2 2 3 2 2 2 2 2 2 2 4 4 4 7 8 5 1 2 5 5 5 7 8 8 7 7 5
8 6 3 5 4 5 7 6 6 6 7 8 9 11 12 11 12 14 10 6 6 8 6 2 3 3 8 8 5 2 6 8 6 4 4 4 5 7 6 5 4 4 4 3 2 2 0 1 3 5 1 2 2 0 2 1 1 3 3 3 3 3 3 2 1 2 3 2 1 2 2 5 5 5 6 6 2 1 3 6 5 5 8 9 8 7 7 6
7 4 3 6 4 6 7 6 6 6 7 8 10 12 12 11 12 13 10 9 9 9 7 4 6 7 9 7 1 3 5 5 6 6 4 5 6 4 4 7 5 3 2 3 1 4 2 2 4 5 1 1 2 2 4 4 3 4 4 3 4 4 4 3 2 3 4 3 3 2 2 5 5 5 5 4 1 2 5 5 4 7 9 7 8 8 7 7
6 5 2 5 7 8 7 6 7 7 7 10 12 13 13 12 11 12 10 10 10 8 8 7 8 9 8 6 2 4 6 6 8 6 4 6 4 4 5 5 4 2 1 4 4 3 2 3 3 4 2 2 3 4 3 3 2 3 3 1 4 5 5 4 3 4 4 3 3 2 1 3 3 2 3 2 2 4 5 3 2 6 8 6 8 9 7 7
5 8 7 4 9 8 7 6 7 7 8 11 14 15 16 13 10 11 11 9 8 8 9 9 8 7 8 6 4 4 3 6 8 6 6 6 2 6 3 3 3 4 1 2 2 2 1 2 3 4 3 2 2 2 1 1 1 3 1 3 3 5 6 4 3 4 3 3 4 3 1 4 3 1 2 3 3 2 4 4 2 3 6 6 7 8 7 7
6 6 6 6 9 8 7 7 7 7 9 13 14 14 15 11 7 10 13 11 8 8 8 8 9 8 8 7 6 8 9 8 7 6 7 6 3 6 4 4 4 5 3 7 3 2 2 3 3 4 4 2 1 2 1 0 2 2 2 2 0 2 4 4 4 4 2 4 4 3 2 4 4 4 4 3 3 2 5 7 2 1 5 7 6 6 7 6
6 4 5 5 7 6 7 8 9 8 8 9 10 12 13 10 7 10 13 13 10 10 10 8 10 10 9 9 7 7 10 11 8 6 7 7 2 3 5 6 6 3 10 8 2 2 3 4 4 6 5 3 3 3 1 2 2 2 2 2 2 1 2 3 4 4 3 4 3 2 5 3 2 5 5 4 2 1 3 5 3 3 6 8 5 4 6 6
5 4 4 2 3 6 7 8 9 8 8 8 6 9 13 12 10 9 11 11 10 11 9 7 9 9 8 8 7 5 8 11 11 10 10 9 3 2 3 5 4 7 9 3 2 1 4 4 4 7 7 6 6 3 2 4 6 5 4 5 5 4 2 3 5 4 5 4 3 2 4 4 2 2 3 4 4 2 1 2 2 1 5 7 6 5 6 7
5 4 5 7 4 5 5 6 8 8 11 11 6 7 11 12 12 10 10 11 11 11 8 6 9 11 10 9 7 5 8 10 9 10 11 8 2 2 4 6 5 8 5 4 5 3 4 5 5 7 6 7 8 5 4 6 7 8 8 7 5 4 5 5 5 5 4 4 4 2 2 3 3 3 1 2 4 2 1 2 2 2 2 5 7 7 7 8
7 4 6 9 7 7 7 8 9 10 11 11 6 7 9 10 12 11 7 7 9 11 10 8 9 12 12 10 8 7 7 8 7 6 7 8 2 1 3 5 5 9 5 6 4 3 1 3 6 8 6 7 9 8 6 6 7 8 8 7 7 6 5 6 5 5 5 6 6 4 3 4 5 5 2 4 5 2 2 2 1 1 3 5 7 8 7 9
7 6 7 8 8 8 8 8 8 8 7 7 6 8 9 10 11 10 8 6 7 9 10 10 11 13 14 14 12 8 3 3 5 2 3 8 5 2 1 6 5 5 6 7 3 4 0 2 3 6 6 7 10 8 7 6 6 6 6 7 7 7 6 6 5 5 5 6 6 5 5 6 5 3 2 6 5 1 1 2 3 4 5 6 7 8 8 8
12 11 9 7 7 7 7 6 6 6 5 5 6 6 8 10 10 8 7 7 7 7 8 9 9 8 11 11 8 3 5 4 5 3 1 4 7 3 2 4 8 4 4 6 4 5 2 3 4 5 5 7 9 8 7 6 5 6 7 8 8 7 6 5 4 4 4 4 5 5 6 3 0 2 4 6 3 2 3 4 3 2 4 5 6 8 7 6
16 14 11 8 6 7 8 7 5 5 4 3 5 6 8 11 9 5 5 7 8 9 9 8 6 5 8 8 4 7 9 6 5 6 3 3 9 9 4 6 10 8 3 3 2 3 4 3 5 5 4 7 8 7 5 4 5 6 7 8 10 8 7 6 6 5 5 4 4 5 5 1 2 2 3 5 6 5 4 5 4 2 3 4 3 4 4 5
Wind_Direction
14 11 8 7 5 3 3 2 3 2 0 357 350 334 309 281 263 256 253 249 246 247 248 249 250 260 265 273 281 281 290 298 298 276 246 248 40 85 138 177 221 247 248 248 248 253 255 248 263 275 260 285 61 21 19 25 19 86 144 97 95 295 290 282 279 298 54 191 173 119 72 26 298 124 87 66 81 84 79 78 86 85 87 100 114 128 137 147
15 12 9 7 4 2 0 358 357 355 354 353 348 338 319 296 278 266 260 255 252 251 251 252 254 262 269 276 279 285 300 298 279 272 243 190 98 89 115 221 253 258 247 254 255 261 280 310 309 317 314 9 70 30 352 4 32 83 109 105 154 204 224 253 263 257 198 205 207 207 105 111 263 99 100 129 94 84 90 95 103 99 102 113 122 132 137 137
15 12 10 7 4 1 358 356 353 351 351 349 348 343 331 311 288 278 272 266 261 256 254 255 258 263 268 272 280 298 312 294 271 255 194 152 154 213 223 263 261 265 257 258 265 289 336 351 355 8 356 18 82 91 260 330 33 89 134 146 199 197 213 244 242 229 213 197 181 347 147 161 115 72 88 103 89 78 100 120 124 117 124 129 133 137 140 138
14 11 9 7 4 1 358 355 351 350 349 348 348 344 340 328 306 292 283 275 267 260 257 254 256 259 266 274 290 316 297 282 264 154 138 136 157 203 230 265 270 273 267 265 271 305 33 17 3 27 8 13 66 75 111 56 134 136 166 158 173 183 196 224 225 218 202 150 121 87 247 114 77 79 91 92 87 76 116 144 127 129 134 134 138 141 144 142
13 11 8 5 2 360 357 354 350 349 348 349 349 344 342 336 325 310 295 286 271 262 257 249 251 253 261 268 274 292 273 280 124 127 126 124 134 175 245 283 310 284 266 268 271 323 50 23 348 24 316 115 75 33 109 119 141 141 184 155 151 180 188 202 226 217 152 76 155 172 148 95 83 90 91 92 96 101 179 140 126 134 137 144 148 145 146 142
13 11 7 4 1 358 356 353 350 349 349 349 348 345 343 339 334 331 330 300 275 265 254 244 246 247 256 266 271 268 265 303 114 136 133 125 135 161 282 317 310 290 272 275 275 30 45 15 9 57 29 105 121 173 183 162 185 162 170 161 161 184 173 176 206 198 174 175 183 166 118 100 93 91 95 105 113 141 159 133 133 135 138 146 145 144 145 143
12 10 7 3 359 356 354 352 349 348 349 349 347 346 344 341 336 340 360 326 285 279 253 238 240 247 258 273 278 238 253 250 130 143 140 136 148 96 311 294 296 283 263 278 295 66 45 34 63 118 120 116 144 151 155 167 210 211 152 165 168 159 140 165 192 187 181 163 146 137 122 108 98 100 103 108 120 138 135 130 135 132 135 140 137 140 139 138
11 9 6 2 359 356 352 350 349 347 347 347 347 346 344 342 336 339 360 352 293 274 247 240 242 250 261 249 248 240 247 196 138 144 141 137 159 18 293 277 270 263 246 274 360 79 63 66 85 146 125 104 120 114 140 167 222 234 141 150 155 134 132 161 176 152 139 117 109 115 112 102 102 111 106 109 128 134 131 137 140 133 129 131 132 134 135 138
10 8 5 2 359 355 351 348 347 345 346 346 346 345 343 343 336 335 353 1 304 258 234 247 254 255 234 234 265 273 147 121 139 147 137 137 193 224 259 250 241 249 232 211 258 151 72 64 111 103 6 71 113 128 160 146 242 218 145 138 140 127 129 138 130 112 109 107 108 105 101 105 113 111 102 111 125 130 137 141 135 130 128 134 136 136 143 144
9 7 4 1 358 355 351 346 345 343 343 344 345 343 342 342 335 331 344 360 310 267 223 240 250 216 219 229 264 302 81 116 144 151 150 163 203 220 229 237 268 290 246 74 305 156 122 107 96 46 21 35 358 124 145 184 213 173 135 128 121 113 111 107 104 106 108 110 115 113 113 124 124 110 106 118 126 133 138 133 129 134 142 147 142 144 152 151
8 5 2 360 357 355 351 345 343 341 340 342 343 341 339 340 335 326 332 352 324 287 256 247 235 226 244 253 267 308 110 149 159 166 179 200 218 234 231 220 52 21 297 59 58 73 118 106 78 43 66 63 350 332 169 215 197 140 123 116 111 112 115 108 108 119 118 117 120 122 124 124 116 105 111 120 125 133 128 124 132 146 152 145 142 148 154 163
8 4 0 358 355 354 350 345 341 339 338 338 340 339 336 336 332 321 321 340 333 294 289 289 244 244 273 260 249 211 168 178 170 182 187 210 228 246 227 197 181 170 204 113 120 188 113 100 93 76 84 89 264 289 260 235 106 73 83 114 123 117 109 109 114 120 113 109 110 122 121 105 98 103 113 126 131 133 126 129 141 154 144 132 146 152 152 165
8 5 360 356 353 352 349 345 340 337 335 334 337 336 333 333 328 317 312 322 335 304 303 293 247 240 274 267 179 152 193 176 169 185 188 215 229 210 176 226 212 178 189 101 126 149 116 107 118 144 263 360 237 325 321 240 65 37 322 146 130 113 107 111 106 105 101 86 86 110 112 94 105 116 124 139 142 140 138 148 153 153 138 134 161 156 148 160
8 5 0 355 351 350 348 345 340 335 333 330 332 331 329 330 321 312 303 302 319 302 297 291 264 216 257 262 124 163 210 191 182 190 198 219 214 186 185 208 234 195 193 96 126 130 120 143 187 160 172 206 241 299 289 157 98 99 282 275 136 105 109 112 110 110 105 112 117 124 108 105 117 127 139 149 147 151 151 158 156 149 151 146 155 155 155 158
7 5 1 356 350 349 346 343 339 334 330 327 328 328 326 327 316 305 295 294 303 290 291 285 235 207 265 245 144 169 197 208 209 204 207 215 209 190 181 195 217 197 208 191 171 149 130 153 217 158 198 259 258 289 316 145 140 140 55 281 163 109 101 100 106 104 101 158 158 156 98 112 125 134 150 152 155 169 157 154 158 156 159 147 150 172 172 156
6 4 1 357 350 347 344 342 339 332 328 323 323 323 322 324 312 299 287 279 293 274 256 270 211 202 287 329 151 166 193 220 216 206 210 222 234 230 184 207 221 194 205 214 190 172 146 144 86 77 300 286 270 278 296 284 158 146 148 201 122 111 121 113 102 99 142 182 165 169 116 113 131 138 153 158 171 183 147 142 157 153 150 146 168 178 159 153
4 3 1 357 350 346 342 340 337 330 325 319 319 319 321 321 303 293 280 266 292 266 232 263 230 205 251 50 155 175 197 218 207 206 211 220 252 276 285 251 237 215 210 205 199 194 160 128 75 82 191 232 248 274 259 80 108 169 188 155 120 129 145 131 116 122 175 202 179 148 108 113 132 140 156 162 174 176 134 137 146 142 148 153 172 163 143 145
3 1 360 357 352 346 341 338 334 329 322 315 314 316 320 317 297 283 274 260 294 270 249 264 261 240 226 196 205 193 188 201 199 215 218 211 238 267 278 276 276 262 243 220 206 207 169 149 187 201 189 189 206 228 213 82 137 196 137 110 131 146 140 131 119 81 124 218 170 122 106 123 135 140 156 161 171 160 129 134 135 133 140 143 159 151 143 142
360 359 358 356 351 346 340 336 332 327 320 312 313 318 319 317 299 261 233 216 217 246 251 232 214 232 224 194 207 153 142 186 195 216 228 218 221 235 248 266 272 264 274 259 198 199 177 162 202 223 190 147 188 211 211 33 341 289 70 115 138 142 130 125 125 137 189 220 155 123 122 133 134 139 148 153 164 131 107 127 140 133 123 125 149 115 103 112
358 356 356 353 351 346 339 335 328 324 319 310 315 319 304 283 268 230 211 214 228 236 242 221 208 228 235 169 148 104 115 214 208 213 227 221 218 238 239 242 256 250 266 279 183 171 166 179 227 229 204 183 202 201 161 177 274 305 225 213 144 122 114 119 133 167 187 206 138 124 127 129 130 139 139 142 154 129 124 154 150 133 136 145 147 105 84 96
356 355 354 351 349 344 338 333 324 320 313 307 312 303 280 305 308 312 318 249 245 241 243 246 247 265 277 185 149 162 216 206 203 208 206 217 218 233 225 215 249 250 231 261 44 55 200 258 247 212 164 173 199 188 145 154 258 6 237 279 67 91 92 108 138 153 154 191 148 127 123 121 127 133 133 143 160 147 144 151 134 124 138 139 128 120 109 106
354 354 352 350 347 342 337 330 320 313 303 300 293 261 272 6 360 320 327 283 265 258 248 245 267 267 223 238 213 197 242 213 193 194 171 211 221 225 232 225 258 271 196 185 61 1 287 262 259 72 53 130 152 154 126 127 127 1 311 274 67 78 93 108 133 129 116 116 123 116 112 111 122 129 140 153 152 139 134 133 132 133 141 137 127 126 127 121
352 352 350 349 346 341 335 326 316 304 291 282 270 262 295 19 352 320 310 281 280 275 257 230 239 236 197 214 207 202 244 233 199 179 156 211 224 218 257 265 284 301 255 184 129 231 260 261 61 66 308 191 119 99 98 106 211 121 124 185 78 63 86 94 104 97 91 119 165 146 114 106 115 129 149 151 133 123 124 129 136 130 122 125 125 129 141 136
349 349 348 348 344 340 334 324 307 284 270 259 261 268 324 355 329 328 315 279 276 274 264 237 232 245 206 163 173 204 239 255 232 154 146 217 232 205 243 269 289 286 272 24 153 227 216 68 40 220 212 13 66 133 109 109 246 154 134 142 88 98 100 79 50 55 49 56 192 203 126 111 124 141 132 120 129 132 131 133 127 119 116 117 123 129 139 135
346 346 346 346 344 340 333 319 288 275 266 247 251 257 328 324 324 333 319 285 274 262 248 229 215 242 218 136 164 221 256 253 249 124 141 221 255 254 276 278 278 285 297 299 271 265 70 72 298 278 51 37 327 81 107 109 290 248 155 82 66 100 116 114 86 70 74 21 274 263 105 122 161 152 131 129 146 130 132 147 131 127 143 145 139 141 142 135
343 343 343 344 344 341 337 319 309 320 296 250 249 296 344 316 338 334 310 273 270 254 220 189 162 191 198 181 186 228 259 221 158 114 145 225 263 282 290 266 239 294 332 297 281 314 42 114 298 318 352 321 308 58 92 76 347 328 34 61 75 92 118 120 83 30 122 172 250 257 65 124 136 121 128 141 133 105 112 155 136 146 162 149 145 151 150 138
339 339 340 340 342 343 339 311 317 320 297 272 336 342 302 326 342 323 288 257 258 248 203 167 152 183 192 183 194 220 236 135 131 146 176 214 238 252 261 273 279 273 17 310 305 332 280 218 171 262 298 307 315 62 61 13 345 71 44 2 296 63 106 116 92 359 219 165 279 16 72 106 113 102 130 142 126 124 140 133 130 146 129 114 142 153 145 139
336 336 338 336 338 340 326 303 311 306 299 334 358 310 310 340 321 288 256 258 246 211 211 178 125 182 210 180 203 234 167 111 186 183 163 192 226 243 249 273 309 322 360 305 299 153 268 320 16 260 280 18 21 46 23 336 336 54 45 331 319 10 101 125 112 325 246 126 55 316 91 73 326 108 132 160 128 124 120 102 109 126 114 110 132 132 131 135
333 333 335 333 334 337 327 309 300 289 296 317 333 320 323 318 297 262 241 259 236 181 204 189 139 191 225 187 200 244 234 180 217 157 147 192 217 245 275 303 318 306 291 283 299 43 30 354 1 302 316 30 32 47 16 318 346 22 345 268 264 304 199 132 118 139 255 116 146 221 191 103 325 60 128 211 131 117 109 104 109 107 115 122 109 115 128 133
331 330 331 331 330 333 328 306 282 284 295 309 328 321 310 293 268 229 234 235 213 212 174 172 195 192 210 207 199 223 233 220 179 137 182 215 202 210 261 284 284 287 274 238 266 33 56 335 311 281 331 23 13 55 63 315 338 348 277 260 218 297 360 29 96 133 214 131 157 182 149 116 173 209 211 194 99 124 127 116 125 121 118 118 134 160 138 130
327 326 327 326 323 321 314 288 285 314 320 325 330 314 292 268 238 230 234 228 245 227 189 194 211 190 196 216 216 197 218 233 188 171 207 211 203 203 235 243 221 270 276 228 259 344 135 201 185 155 327 327 277 217 171 223 305 266 265 318 36 7 14 17 0 78 173 80 131 145 121 98 152 192 176 122 96 125 123 116 129 125 118 107 118 130 109 121
324 323 321 319 318 312 291 275 297 320 324 327 324 298 265 233 225 236 231 241 245 195 204 221 202 191 197 212 228 200 208 232 190 181 215 201 205 206 214 229 174 266 291 26 313 296 209 179 134 129 164 285 282 241 190 205 219 242 261 61 65 353 322 203 341 304 197 96 125 141 122 84 271 231 142 129 108 93 94 100 98 91 92 100 100 92 82 103
322 320 316 314 312 296 277 278 291 302 313 318 309 266 249 235 226 231 225 241 255 149 232 247 198 195 202 205 227 210 208 232 180 178 221 218 221 209 200 226 284 32 30 29 310 294 246 145 165 190 150 186 291 300 326 267 248 269 318 102 127 143 313 310 335 29 13 72 118 132 120 106 210 198 127 122 103 85 88 86 79 75 72 104 125 130 139 157
320 317 314 312 306 286 272 272 274 285 304 299 273 237 242 244 235 238 232 237 277 274 255 251 218 205 208 209 227 212 214 229 196 186 206 217 234 229 206 217 221 191 156 178 293 317 309 219 215 206 121 196 296 352 1 321 313 316 305 202 130 141 189 302 326 11 11 335 95 101 108 118 137 116 110 108 100 113 112 93 95 109 102 72 93 121 133 136
319 317 313 306 297 282 266 260 253 263 283 267 244 232 229 237 236 241 240 223 257 278 253 237 224 212 212 212 221 222 219 213 205 204 194 210 230 218 228 207 182 204 194 168 251 305 296 274 210 67 52 261 318 17 328 291 326 343 326 325 74 162 230 136 9 344 357 316 26 55 88 122 138 111 106 114 118 126 117 108 125 125 109 112 88 81 79 82
321 318 309 292 281 267 242 235 227 220 244 241 229 231 225 233 236 232 235 215 225 271 266 241 214 211 213 197 210 227 218 195 219 220 187 204 216 184 211 200 143 202 223 160 207 210 307 293 217 217 210 171 3 344 258 276 314 353 343 320 52 111 293 348 131 349 328 269 55 52 111 128 151 132 120 137 132 128 124 125 125 104 91 114 92 80 71 63
321 315 302 285 276 259 214 206 206 201 227 233 226 235 232 232 239 239 238 234 239 279 283 260 216 222 209 184 201 209 198 192 213 226 201 201 220 222 208 169 129 194 24 335 238 132 348 256 214 218 181 109 52 298 268 292 281 283 32 313 336 46 336 340 152 179 280 290 72 29 181 111 130 144 144 141 126 127 138 134 121 106 125 129 92 78 73 63
315 301 291 276 261 243 205 198 206 208 222 231 232 241 241 239 243 240 219 211 225 238 249 243 228 256 229 191 196 194 190 186 182 207 225 190 192 293 254 167 144 209 28 281 265 83 267 246 175 156 120 117 150 238 229 192 259 315 329 272 301 159 113 0 325 260 316 336 55 195 113 94 124 161 163 143 135 144 139 134 126 118 140 137 109 99 92 93
300 281 286 263 223 212 200 192 202 217 221 223 229 232 240 249 253 246 222 209 218 231 244 232 200 263 255 208 205 200 198 199 183 199 226 166 148 271 273 185 144 173 187 261 281 79 266 279 97 309 338 125 166 197 274 170 41 340 323 311 50 43 123 115 292 288 320 323 316 145 104 99 112 120 125 132 138 153 145 137 132 131 136 121 114 118 113 119
295 277 265 153 155 171 178 186 203 219 220 223 232 233 233 241 249 251 240 222 224 230 243 233 188 256 274 225 213 216 211 211 202 207 217 160 154 212 243 219 144 163 173 234 274 86 252 306 264 257 308 55 266 151 121 168 2 337 323 352 358 309 220 220 236 252 282 315 354 16 78 89 66 57 87 99 103 139 153 129 121 132 131 109 103 112 111 107
300 285 228 151 148 165 171 196 213 213 221 226 231 237 238 238 244 247 239 221 235 237 237 216 151 237 270 248 225 246 237 221 206 220 226 177 180 221 211 160 178 187 158 215 272 54 29 321 296 272 88 69 279 181 86 52 345 323 336 0 328 275 267 279 265 313 331 341 334 320 67 87 56 36 76 92 96 235 152 133 126 122 118 110 107 112 115 119
272 256 158 137 170 200 198 217 219 211 225 230 229 234 240 247 251 250 235 213 222 240 240 202 176 207 248 251 226 7 309 255 223 222 222 217 227 235 126 132 188 216 147 193 168 55 12 313 298 293 327 164 189 83 16 4 13 326 306 326 325 326 336 343 6 355 334 300 286 306 82 90 55 35 60 75 12 66 95 106 116 115 116 120 125 125 121 122
261 274 273 157 178 207 223 225 219 219 225 233 237 236 236 239 246 254 248 219 210 223 232 225 210 213 238 238 137 28 337 291 255 245 242 240 211 114 105 136 186 230 200 187 148 73 336 277 266 278 291 222 171 91 30 14 15 282 248 308 345 360 3 355 358 338 304 290 307 320 104 110 91 62 68 75 48 58 82 92 82 105 119 137 134 131 127 124
295 293 291 215 179 202 233 227 220 223 225 233 239 238 236 233 232 247 252 229 207 214 223 235 237 227 242 239 161 140 251 263 261 255 257 266 148 119 147 137 161 233 205 109 68 56 252 268 279 280 291 243 183 93 68 83 312 267 148 75 7 358 352 339 313 273 270 357 352 326 52 101 118 106 103 133 138 144 146 144 130 106 128 141 133 131 131 132
303 275 266 214 182 204 232 231 233 232 227 231 235 240 241 235 226 241 254 250 231 224 226 235 241 234 240 240 189 175 203 228 256 263 260 257 168 156 186 148 186 241 81 70 15 318 272 311 318 292 305 308 271 314 346 86 320 330 70 83 82 4 347 333 305 270 284 20 356 334 49 95 125 130 132 139 153 168 129 122 156 217 130 124 122 131 135 141
303 269 257 216 190 210 231 245 257 258 253 244 238 243 245 241 232 230 248 264 260 242 235 232 235 233 232 239 227 202 208 216 228 253 269 263 216 149 182 179 187 121 69 61 6 300 285 297 294 279 289 291 276 300 107 166 286 336 22 302 246 136 329 304 294 300 352 356 329 12 29 34 117 130 133 130 132 173 116 126 197 223 126 122 127 143 144 148
294 292 318 313 216 219 219 235 246 246 254 257 253 248 239 238 245 230 223 241 259 258 251 241 238 237 231 234 235 233 235 230 221 225 241 250 279 16 200 203 175 105 85 76 201 227 273 266 261 269 274 268 267 273 183 215 264 272 256 260 235 194 225 272 280 310 345 328 294 23 11 319 307 82 115 141 152 172 163 156 206 161 128 139 150 170 169 161
314 306 355 2 314 252 233 244 256 254 245 240 252 265 243 233 242 239 215 216 238 254 254 246 243 241 236 228 224 234 246 248 239 231 237 240 249 329 247 222 170 126 123 220 197 174 266 272 277 274 266 267 269 264 225 222 246 256 256 266 257 211 211 235 260 288 310 299 297 358 3 304 312 332 327 137 134 125 60 47 7 34 136 162 157 172 190 176
342 338 352 351 324 293 295 296 296 287 258 242 244 257 254 247 243 243 231 211 226 241 243 247 249 247 245 234 226 230 234 251 260 248 258 264 225 134 273 252 178 140 159 242 215 121 243 267 293 288 273 269 268 261 248 235 236 240 242 256 266 253 238 236 248 268 275 277 292 316 318 296 282 270 275 86 91 71 51 41 312 236 221 215 170 169 200 192
348 334 337 334 319 302 294 289 291 285 262 249 247 244 249 258 255 254 255 237 234 240 237 241 245 247 253 248 239 239 233 301 306 300 280 283 273 149 234 286 260 166 181 231 201 98 112 267 302 298 291 283 269 251 240 245 251 251 243 240 246 248 249 251 253 264 273 273 278 286 280 271 257 235 116 88 87 96 132 172 229 199 195 211 182 174 202 204
341 329 331 319 310 309 294 278 274 273 261 245 252 259 253 249 249 261 281 276 265 256 244 250 262 270 273 267 261 306 25 27 322 316 334 292 293 268 188 268 285 259 209 230 186 130 168 272 277 266 266 275 262 234 223 233 240 250 252 244 237 234 233 239 249 256 258 268 281 279 267 268 3 110 119 115 127 200 187 178 196 190 183 196 192 184 196 205
346 336 334 316 298 304 294 274 250 250 269 278 282 282 269 264 264 276 303 284 260 264 275 287 315 330 297 294 346 10 360 352 318 317 329 300 297 292 252 235 262 266 244 234 212 170 194 246 265 246 248 269 254 216 207 229 235 244 248 232 225 227 224 218 227 240 239 243 260 261 252 191 111 186 191 158 163 194 203 170 158 202 200 182 206 216 202 198
Height
790 789 787 786 784 782 781 779 778 776 775 774 773 772 771 770 769 768 768 767 767 766 767 767 766 766 766 766 765 764 763 763 764 763 762 758 755 755 756 756 756 755 755 754 753 751 747 744 742 741 741 743 750 756 759 759 759 767 780 790 798 800 791 781 777 770 770 771 766 767 765 775 783 772 773 775 772 775 778 778 776 775 775 776 778 779 780 782
791 789 788 786 784 782 781 779 778 776 775 774 772 771 770 770 769 768 767 766 766 766 766 766 766 766 765 765 765 764 764 763 763 761 758 756 755 755 756 755 756 755 754 753 751 748 745 744 741 741 745 749 754 758 762 761 761 769 780 791 796 794 785 775 772 767 768 771 768 767 767 777 778 771 773 776 779 780 783 785 780 781 780 779 779 780 781 782
791 790 788 787 785 783 782 779 778 776 774 773 771 770 769 768 768 767 766 766 765 766 765 766 766 765 765 765 764 765 765 764 762 758 754 754 755 755 755 755 755 754 754 752 749 745 744 743 742 745 751 755 756 759 765 764 765 770 777 791 791 782 778 772 768 767 767 767 767 768 768 775 771 765 770 775 781 782 784 786 783 784 783 781 780 780 782 782
791 790 788 787 785 783 782 780 778 776 774 773 771 769 768 767 767 767 766 765 765 765 765 765 766 765 766 765 766 767 765 766 760 752 752 753 754 754 755 755 754 754 753 751 749 746 744 746 746 748 756 760 759 760 765 765 767 771 774 782 778 774 777 771 766 766 765 764 769 775 771 770 766 764 770 774 782 787 785 781 780 782 782 782 780 780 781 782
792 790 788 787 785 784 782 780 778 776 774 772 771 769 767 766 766 766 765 764 764 764 765 765 766 765 765 765 767 765 767 771 759 748 752 753 753 754 754 754 754 754 752 751 749 747 747 749 749 752 758 761 765 767 767 762 762 771 770 768 767 769 773 768 765 766 767 773 777 777 772 768 765 766 771 774 782 787 782 777 776 778 780 780 780 780 781 782
792 790 789 787 785 784 782 780 778 776 775 772 771 768 767 765 764 765 765 764 764 764 765 765 765 765 765 765 767 766 770 770 754 748 752 751 753 754 753 754 753 752 752 752 748 746 749 750 754 760 762 762 769 771 767 761 760 768 767 762 761 762 766 767 766 767 770 777 776 768 764 763 767 771 770 773 779 780 776 774 774 775 776 778 778 780 781 782
793 791 789 787 785 784 782 780 779 776 775 772 771 768 767 765 763 764 764 764 764 764 765 765 765 765 765 766 767 766 768 761 748 750 751 750 753 752 753 753 752 752 752 751 745 747 751 753 759 762 764 765 765 765 762 760 759 763 764 760 756 753 760 765 763 763 762 763 758 754 759 762 768 772 770 773 778 776 774 773 773 773 774 776 778 779 781 782
793 792 789 788 786 784 782 781 778 776 775 773 771 769 767 765 763 763 764 765 764 764 765 765 765 765 766 767 766 765 762 754 747 750 750 751 753 751 753 752 751 752 750 749 744 747 752 755 760 761 766 765 760 763 762 762 764 762 759 754 750 748 753 754 751 751 750 749 746 748 757 761 764 766 769 774 775 774 773 774 773 773 774 776 778 780 781 782
794 792 790 788 786 784 783 780 779 777 775 773 771 769 767 765 764 763 764 765 764 765 765 765 766 765 767 765 764 765 756 748 748 750 750 751 752 752 752 750 752 751 748 748 745 746 751 756 759 758 765 764 758 763 764 770 771 759 752 748 746 746 745 744 744 744 745 745 746 751 758 760 758 761 770 772 771 771 771 773 773 773 777 778 779 780 781 783
795 793 791 789 786 785 783 781 779 777 775 773 771 769 768 766 765 763 764 765 764 765 765 766 766 765 767 764 766 768 752 745 750 750 750 752 751 752 751 749 750 748 746 745 743 745 749 754 755 753 760 764 760 760 764 772 766 748 745 744 743 744 741 741 743 742 743 744 745 754 760 759 754 761 775 772 767 769 769 771 773 775 778 778 778 780 781 782
796 793 791 789 787 785 783 781 779 777 776 773 772 770 768 766 765 764 764 765 764 764 765 766 766 766 767 764 768 766 749 746 750 749 751 752 751 750 748 748 748 747 746 744 745 745 747 750 751 756 765 769 767 763 763 761 752 742 741 745 744 743 743 742 745 743 743 746 745 749 756 757 755 764 774 770 766 768 770 773 773 774 775 775 777 778 779 780
797 794 792 789 787 785 783 782 779 777 776 773 773 770 768 767 766 764 764 765 764 764 765 765 767 767 767 767 766 757 746 747 749 748 751 750 749 748 746 747 746 746 744 743 748 748 749 751 755 766 768 766 770 769 760 746 743 743 742 751 750 745 748 745 745 743 743 748 742 744 759 764 764 769 770 767 767 768 771 775 774 773 772 773 775 775 777 777
797 795 792 789 787 785 784 781 779 778 775 774 772 770 769 767 765 765 764 764 765 764 764 766 766 766 770 766 754 748 746 746 747 747 749 748 747 746 746 747 744 744 743 741 745 747 750 752 756 764 761 762 767 761 751 741 746 752 749 755 754 754 758 747 744 744 746 750 741 748 773 777 770 770 767 765 766 769 773 775 774 773 771 773 774 773 775 775
797 795 792 790 787 785 783 781 779 777 775 774 772 771 769 766 766 765 764 764 764 764 763 765 766 767 770 761 746 746 747 745 747 747 747 746 745 744 745 745 743 742 742 741 743 744 748 750 752 755 756 760 758 751 750 749 753 757 757 757 755 765 765 747 744 748 753 753 742 753 777 779 771 768 765 763 764 768 772 772 771 772 772 773 773 773 775 774
797 795 793 790 788 785 783 781 779 776 775 773 771 770 768 767 767 764 765 764 763 765 763 764 764 763 766 757 744 746 746 744 746 744 745 745 742 742 741 741 741 740 741 741 741 742 746 749 752 758 759 755 752 756 761 758 755 757 770 773 760 764 766 751 745 748 756 753 743 756 775 775 770 767 762 760 762 764 768 769 769 771 771 772 773 773 774 773
797 795 793 790 787 785 783 781 779 776 774 772 771 770 768 767 766 765 766 763 763 764 763 764 761 761 767 758 744 744 746 744 743 743 744 743 741 739 738 738 737 737 739 738 738 740 742 748 754 759 762 760 760 765 766 766 762 758 771 781 765 762 768 762 753 748 750 752 747 754 768 772 769 764 760 758 760 760 762 766 766 768 769 770 772 771 772 773
797 795 792 790 787 785 783 780 779 776 774 772 770 768 767 766 765 764 764 764 765 763 762 762 756 759 762 751 745 746 743 741 741 741 741 741 740 738 737 736 734 733 734 733 736 736 741 754 762 763 764 765 761 764 777 782 776 764 763 772 767 762 766 767 763 752 747 753 754 752 759 768 766 761 759 756 756 757 760 764 764 766 767 768 769 768 770 773
796 794 792 790 787 784 782 780 778 775 773 771 769 768 766 765 764 764 764 764 764 763 764 758 756 768 766 748 744 742 736 737 738 738 739 739 739 739 738 736 732 732 733 735 736 735 741 752 762 767 766 766 764 768 782 783 774 768 762 767 769 762 762 768 768 758 751 756 756 755 762 766 763 760 759 756 753 756 759 762 763 764 766 766 767 767 768 771
796 794 792 789 787 784 781 779 777 775 772 769 768 766 764 764 763 763 762 762 765 768 769 759 758 770 763 744 736 733 731 734 736 736 736 736 737 738 737 735 733 734 740 745 742 736 740 750 761 768 765 766 769 766 770 768 763 763 757 761 766 762 760 762 764 758 753 759 757 756 763 764 763 761 759 756 752 755 759 760 762 764 766 767 767 766 767 770
795 793 791 789 786 783 780 778 776 774 771 769 767 766 766 765 767 766 760 759 760 758 757 751 747 750 745 735 731 732 734 734 735 735 734 734 735 736 735 735 737 738 743 747 743 733 736 754 765 764 758 758 758 755 760 762 756 755 757 758 755 755 756 753 757 753 749 762 758 752 758 759 761 760 757 757 754 756 761 761 762 763 766 768 768 768 769 772
795 793 790 788 785 782 780 777 775 773 771 769 767 768 765 762 769 769 761 758 750 742 744 739 734 737 736 731 728 730 734 736 734 730 732 732 732 739 739 736 743 746 741 738 740 735 740 760 762 749 743 743 744 744 752 758 752 750 755 757 752 750 752 748 749 747 746 760 757 747 755 758 757 758 755 755 757 758 758 760 762 762 764 765 767 769 771 772
795 792 789 787 784 781 779 776 774 772 770 768 767 765 758 754 760 759 758 762 750 735 736 733 731 734 730 727 726 727 733 738 737 730 729 730 733 742 740 736 745 746 736 735 746 752 756 761 750 734 731 733 736 735 743 752 750 751 753 756 756 750 751 749 744 742 744 756 757 748 755 759 755 754 754 753 755 755 753 755 759 761 763 764 766 770 771 773
795 791 789 786 782 780 777 774 772 770 768 767 764 759 754 754 756 753 755 764 756 738 733 733 735 733 730 729 726 728 736 738 739 732 726 731 735 737 739 740 743 741 737 739 752 763 765 753 736 729 729 733 737 736 746 756 749 749 751 756 758 749 755 763 752 745 746 752 755 751 755 759 755 754 753 749 749 751 750 751 753 756 761 763 764 768 770 773
794 791 789 785 781 779 775 772 770 768 767 765 761 756 755 756 756 755 756 762 760 744 732 728 728 728 728 726 723 730 736 731 731 729 725 732 734 731 735 737 740 742 738 737 743 752 752 739 727 727 728 731 738 737 748 760 754 747 745 750 753 747 754 763 755 751 753 753 750 751 763 766 760 761 759 750 748 751 751 752 754 755 758 761 763 766 767 770
793 791 789 784 782 777 773 771 767 766 764 761 758 754 755 758 756 757 760 768 767 747 731 725 725 727 722 723 726 727 730 728 727 725 722 727 730 732 733 729 736 745 739 735 740 743 740 731 726 728 727 730 737 737 740 750 755 751 741 739 742 743 748 754 754 758 770 773 756 756 783 785 764 762 762 756 754 754 753 754 757 758 758 760 764 767 767 768
793 791 788 786 783 776 772 769 765 766 762 756 755 754 757 758 756 758 763 778 777 752 738 733 732 731 723 725 725 722 735 735 721 719 721 724 724 728 737 732 730 739 736 732 735 738 735 728 728 732 731 732 735 738 736 738 752 757 740 731 735 738 745 752 756 765 780 784 761 755 786 794 772 764 761 756 758 759 757 755 756 757 757 758 762 765 766 768
793 790 788 786 783 780 777 771 768 766 762 757 754 756 759 757 758 759 769 796 788 751 741 739 733 731 726 724 721 729 751 740 721 722 721 724 722 722 739 740 733 734 728 732 745 742 732 729 732 733 732 735 738 741 735 732 751 757 735 730 735 736 747 756 762 773 774 771 766 758 774 792 783 769 759 755 761 764 761 759 757 756 755 756 759 760 763 767
793 790 788 785 783 783 780 775 772 766 764 760 756 759 759 757 760 759 783 816 789 741 737 736 727 726 722 720 720 730 739 732 735 734 715 720 725 724 739 739 734 735 725 737 755 741 727 732 735 732 732 737 738 738 732 730 745 745 729 731 734 734 745 752 763 777 766 767 789 777 768 795 797 772 759 757 762 767 763 761 760 757 756 757 757 757 760 764
792 790 788 784 782 781 778 776 772 767 766 762 760 762 758 759 762 764 794 813 773 734 733 731 728 729 724 724 729 730 727 727 738 731 714 722 724 725 739 733 730 737 727 733 746 734 727 729 728 730 735 737 736 731 728 732 739 734 727 731 732 731 737 743 760 778 771 778 804 788 770 799 811 785 771 767 765 768 765 761 759 756 756 758 758 758 759 761
791 789 787 784 781 780 778 775 770 767 766 763 764 762 758 762 767 786 812 800 763 741 732 731 735 733 732 737 738 734 732 730 728 725 725 727 723 724 730 725 727 736 732 731 734 730 727 724 723 729 732 731 731 728 727 730 730 729 730 732 735 737 737 744 753 765 781 791 794 782 769 789 807 793 776 768 762 761 761 761 759 757 757 758 758 757 757 760
790 788 786 784 781 781 779 773 768 767 765 765 765 760 763 768 773 803 812 775 754 749 734 734 737 730 735 744 742 737 735 732 725 730 737 733 732 733 734 733 735 741 743 740 737 731 729 732 730 726 725 725 727 729 726 724 724 729 734 737 751 758 755 764 769 771 794 801 785 775 767 781 804 792 768 760 754 751 755 759 759 758 758 757 756 756 756 758
788 786 784 782 780 779 777 772 768 768 767 766 765 762 770 783 789 801 789 759 759 755 737 737 735 731 736 740 740 735 735 733 725 730 738 738 740 738 739 743 743 754 762 755 751 744 734 733 730 726 724 723 730 735 731 726 726 731 735 746 770 784 783 790 792 786 790 783 771 769 767 782 798 778 756 756 751 748 751 752 754 757 758 757 757 757 757 758
787 784 781 779 777 775 773 771 769 770 768 766 767 765 774 797 802 788 771 762 763 749 736 735 729 730 735 739 740 732 732 733 726 730 734 733 738 736 734 733 732 752 765 759 760 758 747 735 727 730 730 723 727 738 743 740 734 735 740 753 776 794 805 808 796 789 788 774 757 755 764 784 788 764 749 751 750 748 748 749 754 756 757 757 755 756 757 757
784 781 779 775 774 772 769 770 770 769 769 767 770 774 786 803 795 772 765 763 754 742 737 734 729 731 734 738 738 730 735 737 725 730 735 733 741 742 737 732 729 741 753 761 765 761 767 762 739 733 735 728 726 732 739 739 737 736 730 739 761 776 794 805 799 794 792 778 757 751 767 785 782 761 746 744 745 746 748 750 754 755 756 755 752 752 754 754
782 779 776 772 769 768 766 768 768 768 770 768 772 782 794 799 783 769 765 758 752 750 740 730 731 741 741 737 735 727 732 738 728 728 736 739 744 744 740 736 731 734 745 765 768 756 769 770 738 725 727 726 729 728 724 734 747 740 725 736 757 757 761 776 782 776 774 777 769 761 770 772 761 749 740 741 746 745 747 751 753 755 755 754 755 754 754 755
780 776 773 770 766 764 764 766 766 767 768 770 779 786 785 779 768 761 757 749 748 750 748 742 738 746 750 743 741 733 727 733 734 733 736 738 738 737 736 732 728 730 736 753 762 756 768 766 735 725 727 723 729 729 721 734 750 744 743 753 747 734 742 762 773 766 766 783 778 763 768 766 757 754 745 743 749 748 749 752 753 756 756 756 758 758 758 759
778 774 771 766 763 762 762 764 764 766 767 771 783 783 771 762 752 747 744 742 742 745 760 769 751 745 752 749 747 741 733 735 738 739 740 740 739 735 732 728 725 726 728 737 747 746 758 763 737 728 736 726 722 727 724 725 734 743 755 751 734 731 740 753 773 778 778 788 777 761 766 770 772 772 755 747 755 754 751 753 754 756 758 759 760 760 762 763
778 774 769 762 760 759 760 762 763 764 767 773 780 775 764 755 744 737 738 740 743 747 761 770 755 744 747 750 747 738 735 742 742 742 742 742 744 737 728 729 727 725 724 729 739 737 744 760 744 726 735 731 720 729 738 728 723 734 739 731 737 758 764 765 778 784 785 792 782 765 762 766 774 772 758 755 760 756 752 753 755 757 758 759 760 763 765 765
777 775 767 756 755 758 759 761 761 763 769 776 779 771 761 753 740 732 732 734 739 746 751 752 749 746 743 743 746 738 736 742 740 741 743 743 746 737 725 727 729 727 725 725 736 736 736 758 761 735 725 729 727 737 752 747 732 733 735 730 738 754 764 770 770 767 777 788 784 773 770 770 765 754 752 757 756 753 754 754 755 757 756 757 759 763 765 765
776 774 765 753 754 758 758 760 762 765 771 772 770 763 754 749 740 728 724 726 732 739 745 746 746 749 745 739 740 738 736 737 735 739 741 739 743 740 726 723 728 728 726 725 731 735 736 753 767 747 727 736 746 744 749 752 748 749 752 750 750 750 752 757 756 752 761 776 781 783 785 776 754 741 746 752 750 749 750 751 754 754 753 756 758 761 764 765
777 776 764 753 755 758 757 762 764 765 768 765 762 757 748 742 737 729 722 723 728 729 732 741 746 747 748 745 743 741 738 736 735 739 741 736 740 741 725 719 726 727 728 733 733 737 743 751 761 754 744 753 756 738 733 739 743 748 753 753 755 754 753 765 774 761 753 765 774 778 789 781 752 740 744 747 748 746 744 749 753 752 753 757 758 760 762 764
778 774 760 753 757 756 758 765 763 760 763 760 754 749 743 737 734 730 724 723 729 728 726 735 743 744 746 746 745 744 743 742 738 738 742 738 736 735 722 716 721 721 727 739 738 733 739 748 758 757 750 751 744 730 729 733 734 741 747 747 748 750 754 773 788 775 762 766 761 761 784 783 754 743 747 746 745 743 742 747 749 751 754 757 758 760 761 763
776 768 755 752 755 754 760 768 763 758 758 752 744 740 737 734 733 731 726 725 729 731 732 734 735 738 740 737 739 746 751 750 742 736 738 735 728 725 719 716 720 721 727 738 740 736 740 750 760 759 750 743 735 729 731 732 736 747 748 745 749 754 755 762 770 768 768 770 762 768 791 785 756 745 747 746 745 744 746 747 748 752 754 755 758 759 761 763
775 767 756 753 753 753 762 768 764 760 755 748 744 740 733 729 730 731 731 729 727 730 736 734 730 732 732 729 735 745 754 756 747 736 738 737 727 721 717 717 722 725 728 735 738 741 748 754 759 766 771 768 760 755 753 747 746 750 750 749 753 753 755 759 759 762 770 769 764 777 793 781 757 748 747 747 748 748 748 748 749 752 753 754 757 758 761 764
777 770 759 752 751 754 759 758 755 755 752 748 747 742 735 729 726 729 731 727 722 725 732 732 727 728 728 727 733 740 744 751 749 740 738 736 727 720 718 720 724 725 726 729 729 735 747 753 757 771 785 792 789 782 774 763 754 752 752 753 754 754 759 765 765 769 778 772 764 775 784 772 756 751 751 750 750 750 749 749 750 750 751 754 756 758 761 763
779 773 761 752 749 751 754 750 748 751 750 748 748 742 739 738 730 726 729 729 724 721 726 728 724 727 730 731 738 741 738 740 743 741 739 736 730 723 719 719 722 725 728 730 728 734 747 752 753 762 771 776 778 769 759 758 760 762 762 757 755 757 759 764 771 776 777 774 773 773 772 768 762 756 756 754 753 754 752 751 753 750 751 754 756 758 759 761
780 774 767 764 760 754 753 750 748 750 748 748 750 744 740 742 738 730 729 731 727 722 724 725 724 730 736 736 742 746 740 736 737 740 740 735 730 727 721 718 723 727 730 731 731 738 753 757 753 755 757 755 755 752 749 754 759 761 762 759 757 757 759 765 774 773 769 778 786 773 764 770 767 757 756 756 754 754 753 752 752 751 751 754 755 757 758 760
780 774 768 773 773 763 758 754 748 748 746 745 747 745 742 743 743 738 732 729 727 727 731 733 730 730 732 733 741 747 745 743 742 740 738 734 735 739 733 723 724 728 730 733 731 737 754 761 752 750 754 750 746 746 747 752 756 755 756 757 755 756 761 766 770 765 764 777 782 769 764 770 765 755 754 752 750 753 752 751 750 750 751 752 754 757 758 759
783 779 772 773 775 768 762 758 753 751 749 745 746 747 746 745 743 737 731 732 735 731 732 740 738 731 728 728 735 745 747 749 749 744 739 738 742 749 748 739 730 727 731 736 733 735 751 760 752 749 754 751 746 745 744 747 753 753 753 754 754 755 758 760 763 761 761 767 767 762 765 767 759 753 750 747 748 750 750 750 751 752 753 752 753 757 758 757
791 790 783 779 776 768 762 759 756 755 751 748 750 749 746 747 745 738 731 736 743 737 732 738 738 731 729 727 731 740 742 744 749 747 743 748 750 748 751 750 738 730 733 738 737 741 753 760 753 750 758 758 748 743 744 747 752 754 754 753 753 755 757 758 760 760 762 766 762 761 768 766 752 745 745 747 749 749 751 754 753 752 753 752 753 756 756 755
797 794 790 787 781 771 765 760 756 758 756 753 754 751 748 747 743 741 738 734 738 739 734 735 736 735 733 730 734 742 741 739 744 741 739 748 751 744 743 744 738 737 739 738 739 746 755 760 753 754 768 767 749 745 748 746 750 757 758 756 754 757 759 759 758 759 762 766 766 767 771 765 751 744 746 749 750 751 754 755 753 752 751 751 753 754 754 754
799 794 790 790 785 774 767 761 756 761 762 757 755 753 752 748 739 742 750 743 734 735 733 732 738 744 744 741 742 745 741 737 737 734 731 736 739 736 734 733 733 738 743 742 743 746 751 758 756 758 771 767 748 746 748 750 763 770 759 751 752 753 754 756 756 756 755 759 767 771 766 756 748 746 748 750 751 753 753 751 752 753 751 750 752 751 751 751